Temp
-8 -7 -8 -8 -8 -8 -9 -9 -9 -8 -8 -7 -9 -8 -8 -8 -7 -7 -7 -7 -7 -7 -7 -7 -7 -7 -7 -7 -7 -7 -7 -7 -8 -8 -7 -6 -6 -6 -6 -6 -6 -6 -6
-8 -7 -8 -8 -7 -8 -8 -8 -9 -8 -8 -4 -9 -9 -8 -8 -7 -7 -7 -7 -7 -7 -7 -7 -7 -7 -7 -7 -7 -6 -6 -7 -7 -7 -8 -7 -6 -6 -6 -6 -6 -6 -6
-8 -7 -8 -8 -8 -9 -8 -8 -8 -8 -7 -7 -9 -9 -8 -8 -8 -7 -7 -7 -7 -7 -7 -6 -6 -6 -6 -6 -7 -7 -6 -6 -7 -7 -7 -7 -7 -7 -7 -6 -6 -6 -6
-7 -8 -8 -8 -8 -8 -8 -8 -8 -8 -8 -8 -8 -8 -8 -8 -7 -7 -7 -7 -6 -6 -6 -7 -6 -7 -7 -7 -6 -6 -6 -6 -6 -6 -7 -7 -7 -7 -8 -7 -6 -6 -7
-8 -8 -8 -8 -8 -9 -9 -7 -7 -8 -8 -7 -8 -8 -7 -7 -7 -7 -6 -6 -6 -6 -7 -7 -7 -7 -7 -7 -7 -7 -6 -6 -6 -6 -7 -7 -7 -7 -7 -7 -7 -7 -6
-8 -8 -9 -8 -8 -8 -8 -8 -8 -8 -8 -7 -7 -7 -8 -8 -8 -7 -7 -7 -7 -7 -7 -7 -7 -7 -7 -7 -7 -7 -7 -7 -6 -6 -7 -7 -7 -7 -7 -8 -7 -8 -7
-8 -9 -9 -8 -8 -8 -8 -8 -9 -9 -8 -8 -8 -8 -8 -8 -8 -8 -8 -8 -7 -7 -7 -7 -8 -8 -7 -7 -7 -7 -7 -7 -7 -7 -6 -6 -7 -7 -7 -7 -7 -7 -8
-9 -9 -9 -9 -9 -9 -9 -8 -8 -9 -9 -9 -9 -8 -8 -9 -8 -8 -8 -8 -7 -7 -7 -7 -7 -7 -7 -8 -8 -7 -8 -8 -8 -7 -7 -7 -7 -7 -7 -7 -7 -7 -7
-9 -9 -10 -10 -10 -10 -10 -10 -9 -9 -9 -9 -9 -9 -9 -9 -9 -9 -8 -8 -8 -8 -7 -7 -7 -7 -7 -8 -7 -7 -8 -8 -8 -8 -8 -8 -7 -7 -7 -7 -7 -7 -7
-10 -10 -10 -10 -10 -9 -9 -9 -9 -9 -10 -10 -10 -9 -9 -9 -9 -8 -8 -8 -7 -8 -7 -7 -8 -7 -8 -8 -8 -7 -8 -8 -9 -8 -9 -9 -8 -8 -8 -7 -8 -7 -7
-9 -10 -9 -9 -9 -9 -9 -10 -9 -9 -9 -9 -9 -9 -9 -9 -8 -9 -8 -8 -8 -8 -8 -8 -8 -8 -8 -8 -9 -10 -10 -9 -9 -9 -9 -9 -9 -9 -9 -8 -8 -8 -7
-10 -9 -9 -9 -9 -9 -10 -9 -9 -9 -9 -9 -9 -9 -9 -9 -9 -9 -9 -9 -9 -9 -9 -9 -10 -10 -10 -10 -10 -10 -10 -10 -10 -10 -10 -10 -9 -9 -9 -9 -9 -8 -8
-10 -10 -10 -10 -10 -10 -10 -10 -10 -10 -9 -9 -10 -10 -10 -10 -10 -10 -10 -10 -10 -10 -10 -10 -11 -11 -11 -11 -11 -11 -11 -11 -11 -11 -12 -11 -10 -10 -9 -9 -9 -9 -8
-10 -10 -10 -10 -10 -10 -10 -10 -10 -10 -10 -9 -9 -9 -10 -10 -10 -10 -10 -11 -11 -11 -11 -11 -11 -11 -11 -11 -11 -11 -11 -11 -11 -11 -11 -12 -12 -10 -10 -9 -9 -9 -9
-11 -10 -10 -10 -10 -10 -10 -10 -10 -10 -10 -10 -10 -10 -11 -11 -11 -11 -11 -11 -12 -11 -11 -11 -11 -11 -11 -11 -11 -11 -11 -11 -11 -11 -11 -11 -12 -12 -11 -10 -9 -9 -9
-11 -11 -11 -11 -10 -10 -10 -10 -10 -11 -11 -11 -11 -10 -10 -11 -11 -11 -11 -11 -11 -11 -11 -12 -12 -12 -12 -12 -12 -12 -12 -11 -11 -12 -11 -11 -11 -12 -12 -11 -10 -9 -9
-11 -11 -11 -11 -11 -11 -11 -11 -11 -11 -11 -12 -12 -12 -12 -12 -12 -12 -12 -12 -12 -12 -12 -12 -12 -12 -12 -12 -13 -13 -13 -12 -12 -11 -11 -11 -11 -12 -12 -12 -11 -10 -10
-11 -11 -11 -11 -11 -11 -11 -11 -11 -11 -12 -12 -12 -12 -12 -12 -12 -12 -12 -12 -13 -13 -13 -13 -12 -12 -12 -12 -12 -13 -13 -13 -12 -12 -12 -12 -12 -12 -12 -12 -11 -11 -10
-12 -12 -12 -12 -12 -12 -12 -12 -12 -12 -12 -12 -12 -12 -12 -12 -12 -13 -13 -13 -13 -13 -13 -13 -13 -13 -12 -12 -12 -13 -13 -13 -12 -12 -12 -12 -12 -12 -12 -12 -11 -11 -11
-12 -12 -12 -12 -12 -12 -12 -12 -12 -12 -12 -12 -12 -12 -12 -12 -13 -13 -14 -13 -13 -13 -13 -14 -13 -13 -13 -12 -13 -13 -13 -12 -12 -12 -12 -12 -12 -12 -12 -12 -11 -11 -11
-12 -12 -12 -12 -12 -13 -13 -13 -13 -12 -12 -12 -12 -12 -13 -13 -13 -14 -14 -14 -14 -14 -14 -14 -14 -13 -13 -13 -13 -13 -13 -12 -12 -12 -12 -12 -12 -12 -12 -12 -12 -11 -12
-12 -12 -13 -13 -13 -13 -13 -13 -13 -13 -13 -13 -13 -14 -14 -14 -14 -14 -14 -14 -14 -14 -14 -14 -14 -14 -14 -15 -15 -15 -14 -13 -13 -12 -12 -12 -12 -11 -12 -12 -12 -12 -13
-13 -13 -14 -13 -14 -14 -14 -14 -14 -14 -14 -14 -14 -14 -14 -14 -14 -14 -14 -14 -14 -15 -15 -14 -14 -14 -15 -16 -15 -15 -14 -14 -13 -12 -12 -12 -11 -11 -11 -12 -12 -13 -13
-13 -14 -14 -14 -14 -14 -15 -14 -14 -14 -14 -14 -14 -14 -14 -14 -14 -14 -14 -14 -14 -14 -15 -15 -15 -15 -15 -15 -15 -14 -15 -14 -13 -13 -12 -12 -11 -11 -11 -12 -12 -13 -13
-14 -14 -14 -15 -15 -15 -15 -15 -15 -15 -15 -15 -14 -14 -14 -14 -14 -14 -14 -14 -14 -14 -14 -15 -15 -15 -15 -15 -15 -15 -15 -14 -13 -12 -12 -12 -11 -11 -11 -12 -12 -12 -12
-15 -15 -15 -15 -15 -15 -15 -15 -15 -15 -15 -15 -15 -14 -14 -14 -14 -14 -14 -14 -14 -14 -14 -14 -14 -15 -15 -16 -16 -15 -14 -13 -13 -12 -12 -12 -12 -12 -12 -12 -12 -12 -12
Height
5869 5866 5873 5873 5873 5877 5879 5878 5878 5875 5872 5852 5870 5872 5872 5873 5875 5873 5873 5874 5874 5872 5872 5872 5871 5871 5870 5870 5871 5871 5871 5868 5865 5864 5866 5869 5870 5873 5876 5878 5880 5882 5884
5863 5862 5864 5865 5864 5866 5867 5867 5867 5870 5871 5846 5864 5867 5865 5865 5867 5868 5865 5865 5865 5865 5866 5867 5865 5864 5864 5863 5863 5864 5865 5866 5865 5860 5858 5859 5860 5864 5868 5871 5872 5875 5877
5851 5847 5847 5851 5858 5861 5860 5850 5849 5859 5863 5849 5858 5858 5858 5860 5858 5860 5858 5857 5858 5859 5858 5857 5858 5857 5857 5856 5856 5857 5859 5859 5860 5859 5856 5853 5852 5853 5857 5861 5863 5865 5867
5848 5839 5835 5843 5851 5852 5849 5837 5830 5847 5850 5851 5851 5850 5850 5850 5849 5850 5849 5848 5848 5849 5848 5848 5848 5848 5847 5848 5848 5848 5847 5850 5850 5852 5851 5848 5846 5847 5848 5849 5852 5854 5857
5848 5844 5840 5843 5841 5842 5845 5833 5834 5842 5844 5845 5844 5843 5844 5842 5840 5838 5838 5837 5838 5839 5838 5838 5837 5837 5836 5836 5836 5837 5839 5840 5842 5841 5842 5843 5842 5837 5837 5840 5840 5842 5846
5843 5839 5840 5839 5840 5842 5839 5837 5836 5838 5838 5836 5835 5837 5835 5832 5831 5830 5828 5829 5829 5829 5828 5828 5828 5826 5825 5824 5823 5824 5826 5828 5831 5833 5834 5834 5833 5831 5828 5827 5831 5832 5837
5835 5834 5834 5836 5835 5833 5831 5830 5830 5831 5831 5830 5829 5825 5822 5822 5821 5820 5819 5817 5819 5818 5818 5816 5814 5812 5813 5813 5811 5810 5811 5812 5816 5817 5818 5821 5823 5822 5823 5822 5818 5821 5825
5828 5827 5824 5823 5823 5824 5823 5822 5821 5818 5817 5816 5816 5815 5814 5813 5810 5808 5808 5807 5805 5805 5804 5803 5802 5800 5798 5796 5798 5797 5796 5797 5800 5801 5804 5806 5805 5809 5806 5809 5811 5809 5811
5824 5822 5819 5817 5816 5815 5814 5813 5812 5811 5808 5807 5804 5803 5802 5801 5800 5797 5795 5792 5792 5791 5791 5790 5788 5785 5784 5781 5780 5781 5782 5782 5781 5782 5785 5787 5793 5793 5795 5794 5797 5799 5800
5817 5816 5814 5811 5808 5804 5803 5801 5800 5799 5797 5794 5793 5791 5789 5786 5783 5781 5778 5778 5777 5774 5772 5768 5765 5763 5762 5762 5763 5763 5762 5764 5762 5764 5764 5770 5774 5777 5776 5780 5784 5785 5788
5809 5807 5805 5803 5799 5794 5791 5789 5788 5787 5786 5783 5781 5778 5777 5777 5775 5771 5766 5765 5763 5762 5759 5755 5751 5748 5747 5745 5740 5741 5744 5742 5740 5743 5748 5750 5755 5759 5762 5763 5767 5772 5775
5801 5798 5794 5792 5789 5785 5781 5779 5777 5775 5772 5769 5766 5763 5760 5757 5755 5752 5747 5745 5741 5739 5739 5735 5732 5730 5727 5725 5724 5723 5722 5723 5725 5725 5726 5730 5735 5740 5745 5746 5750 5755 5761
5792 5789 5786 5781 5778 5775 5772 5770 5767 5763 5760 5758 5753 5748 5746 5742 5737 5732 5729 5726 5722 5719 5717 5714 5712 5709 5707 5707 5704 5703 5703 5704 5704 5707 5709 5711 5715 5721 5727 5730 5734 5739 5745
5781 5777 5773 5770 5768 5765 5762 5760 5756 5752 5749 5745 5740 5736 5731 5727 5721 5716 5711 5706 5702 5698 5694 5692 5691 5689 5686 5685 5686 5685 5682 5682 5684 5687 5691 5694 5696 5701 5708 5713 5718 5722 5727
5769 5765 5761 5758 5754 5750 5745 5741 5736 5732 5728 5724 5719 5714 5710 5705 5699 5694 5688 5683 5678 5674 5671 5669 5667 5664 5662 5662 5662 5662 5662 5663 5665 5666 5672 5677 5680 5684 5689 5695 5701 5705 5710
5756 5753 5749 5745 5741 5737 5733 5728 5722 5717 5710 5703 5697 5692 5687 5681 5676 5670 5665 5661 5656 5651 5647 5643 5639 5636 5635 5635 5635 5638 5640 5644 5646 5648 5653 5659 5664 5668 5672 5677 5683 5690 5695
5744 5740 5735 5731 5726 5721 5716 5711 5706 5700 5693 5686 5679 5672 5667 5662 5655 5649 5643 5638 5631 5625 5621 5618 5617 5615 5613 5612 5613 5616 5619 5623 5627 5631 5636 5641 5646 5652 5656 5661 5667 5674 5681
5733 5729 5724 5719 5714 5709 5704 5697 5691 5685 5680 5674 5666 5657 5649 5641 5632 5625 5619 5615 5610 5604 5601 5601 5599 5596 5594 5592 5593 5595 5600 5605 5610 5615 5619 5624 5630 5636 5640 5645 5651 5659 5666
5724 5720 5715 5709 5703 5697 5691 5685 5679 5672 5664 5656 5648 5639 5631 5624 5617 5609 5603 5598 5595 5591 5587 5584 5582 5580 5577 5575 5575 5578 5583 5589 5595 5600 5604 5609 5615 5622 5627 5631 5638 5644 5650
5716 5711 5705 5700 5693 5686 5679 5672 5663 5655 5647 5639 5631 5623 5615 5609 5601 5594 5589 5585 5580 5576 5572 5569 5566 5564 5562 5560 5561 5563 5567 5574 5580 5586 5591 5597 5602 5609 5615 5620 5625 5630 5636
5705 5699 5692 5685 5678 5670 5663 5655 5647 5639 5631 5623 5615 5607 5598 5592 5587 5582 5577 5572 5568 5563 5560 5556 5553 5550 5548 5546 5545 5548 5553 5559 5567 5573 5579 5585 5591 5597 5603 5608 5613 5617 5621
5694 5687 5680 5673 5665 5658 5649 5640 5632 5624 5615 5607 5600 5593 5586 5580 5575 5570 5566 5562 5557 5553 5549 5546 5541 5538 5534 5530 5530 5533 5540 5547 5555 5562 5568 5574 5580 5586 5592 5597 5602 5606 5609
5684 5677 5669 5661 5654 5646 5637 5628 5619 5610 5602 5595 5588 5583 5578 5572 5567 5563 5558 5554 5549 5544 5540 5536 5532 5528 5524 5522 5522 5525 5530 5537 5543 5550 5558 5564 5570 5576 5582 5588 5593 5597 5600
5673 5666 5658 5651 5643 5635 5625 5616 5607 5598 5592 5586 5581 5576 5571 5566 5561 5556 5551 5545 5540 5536 5532 5528 5524 5520 5518 5516 5518 5519 5524 5530 5536 5542 5549 5555 5561 5567 5573 5578 5583 5587 5591
5663 5656 5649 5641 5633 5624 5614 5605 5596 5590 5584 5579 5575 5571 5567 5562 5556 5550 5544 5538 5533 5529 5525 5520 5517 5514 5512 5511 5511 5514 5518 5523 5529 5535 5541 5547 5553 5559 5564 5569 5573 5578 5582
5654 5647 5640 5631 5623 5614 5604 5596 5589 5583 5579 5574 5570 5566 5562 5557 5551 5544 5538 5533 5527 5523 5518 5515 5512 5510 5508 5507 5506 5509 5513 5518 5523 5529 5534 5540 5545 5550 5555 5560 5564 5569 5573
Wind_Speed
39 29 34 35 37 34 33 33 35 39 31 36 17 13 12 14 17 18 20 20 20 20 20 20 20 19 20 19 19 20 21 20 17 23 22 21 21 27 32 35 34 32 31
33 39 36 40 43 33 36 40 42 35 26 13 17 21 16 18 19 21 22 24 24 24 25 24 24 25 25 25 24 24 25 25 18 17 16 20 22 24 29 35 36 35 35
29 40 38 42 40 40 40 46 48 51 26 28 23 24 23 25 23 26 26 26 27 27 28 29 29 29 29 30 30 28 28 27 28 23 23 18 17 22 26 32 39 39 39
26 21 33 31 10 18 30 39 39 32 27 15 23 25 28 28 29 30 29 29 29 31 30 32 33 34 34 34 34 33 33 33 31 30 29 26 23 22 21 26 34 44 43
18 12 12 8 12 19 20 13 2 13 20 24 26 29 30 31 33 33 33 33 34 35 37 39 39 41 39 40 41 39 38 37 38 35 34 35 32 29 26 28 25 38 41
20 22 19 18 17 21 20 16 14 21 28 29 29 32 32 32 33 35 35 35 36 37 37 39 42 43 45 45 44 44 44 42 41 42 40 39 40 38 36 32 31 28 34
33 29 27 26 26 24 24 22 22 24 28 30 31 31 30 32 34 36 36 36 37 36 38 38 39 40 41 45 47 46 46 45 45 45 45 44 45 45 45 40 36 34 34
35 35 34 30 24 24 24 24 26 25 25 26 28 31 32 33 34 35 38 37 38 38 38 40 41 42 45 46 48 48 49 48 47 49 49 51 48 49 49 47 43 38 37
32 32 30 28 26 25 26 28 29 31 31 32 32 32 34 37 40 41 41 41 41 43 45 47 48 50 52 55 56 55 53 51 52 51 50 50 54 52 53 52 47 45 39
30 28 30 30 32 32 33 33 33 34 33 33 36 39 41 42 43 45 46 46 48 50 52 54 57 60 60 58 59 61 63 61 59 59 56 52 51 55 54 54 52 50 46
28 30 32 33 35 35 33 32 33 33 35 36 37 39 42 45 47 48 49 49 51 52 53 55 58 61 64 66 65 61 55 58 65 65 61 58 53 52 54 54 53 53 52
31 32 33 34 34 33 32 34 35 35 37 39 41 42 43 45 48 50 50 51 53 53 55 56 58 59 60 62 64 64 60 57 56 60 62 60 59 55 54 54 54 54 54
33 33 33 34 33 32 33 35 37 38 40 42 42 43 45 47 48 50 54 56 55 56 56 55 56 55 57 57 58 61 62 59 57 53 55 58 58 59 58 57 56 54 54
36 36 36 35 34 34 35 35 37 39 41 44 45 45 46 49 51 54 56 57 58 58 56 55 56 58 59 58 57 60 61 60 58 57 52 54 55 59 58 59 59 57 55
36 37 37 37 38 38 39 40 43 46 47 47 48 50 53 55 57 57 58 58 58 59 60 60 62 63 65 66 63 60 62 60 59 57 56 52 51 53 56 57 59 60 59
37 38 38 38 39 39 40 43 47 48 51 54 56 58 60 61 61 61 61 61 61 61 60 57 57 57 55 57 58 60 61 61 56 56 55 53 52 51 51 54 55 57 60
38 38 39 40 41 43 46 48 49 51 54 57 59 61 60 60 61 62 62 60 59 57 56 49 46 49 51 52 52 55 56 57 55 54 53 50 50 50 49 51 52 52 51
38 39 40 42 44 46 48 50 53 55 56 56 55 58 60 60 61 61 60 56 55 50 45 44 43 42 41 44 48 50 53 52 53 52 49 48 49 47 46 47 51 53 53
38 40 41 44 46 49 51 54 55 54 53 54 55 58 58 57 55 53 52 48 42 41 43 43 41 40 39 38 41 42 48 49 49 48 47 45 45 44 41 43 45 48 51
39 41 43 45 48 51 52 52 52 52 54 54 56 55 53 52 49 42 38 40 41 39 36 36 36 36 36 34 38 39 43 47 46 46 44 43 42 40 38 38 40 43 46
41 43 46 49 51 51 51 51 52 54 55 55 52 50 48 43 35 37 35 34 34 33 34 35 35 35 34 35 36 41 41 45 44 44 42 40 40 38 36 36 37 38 38
42 45 48 48 47 48 50 52 54 55 54 51 44 40 36 36 35 32 32 31 30 30 30 32 32 31 33 30 32 36 37 41 42 41 39 39 38 38 36 35 35 33 31
45 47 46 45 46 49 51 53 53 51 44 39 34 31 30 30 29 29 30 31 31 30 30 27 26 25 24 22 21 24 31 37 40 39 38 37 36 34 34 34 33 33 31
46 43 43 45 47 49 51 51 48 39 37 31 30 28 27 27 26 28 29 29 29 26 22 22 24 22 19 18 18 20 26 32 34 35 36 36 35 32 33 34 32 30 30
41 42 43 45 47 48 48 45 37 34 29 30 26 24 25 26 27 28 28 27 24 21 25 24 17 17 17 15 18 21 23 28 31 32 33 34 34 33 33 32 32 32 32
39 40 42 43 46 46 43 39 31 26 24 25 22 21 24 26 27 26 24 28 24 23 24 25 18 17 15 12 14 19 21 24 26 29 30 31 32 33 32 31 31 32 31
Wind_Direction
288 265 254 244 244 251 243 249 255 264 262 252 212 257 261 274 280 280 280 279 277 279 278 276 277 281 282 281 282 283 281 291 267 266 272 278 263 252 243 243 241 242 243
291 276 271 254 255 256 254 251 251 275 253 250 256 272 273 272 268 272 274 275 277 278 278 277 276 275 277 275 274 274 277 280 274 276 275 266 258 255 250 243 243 243 244
306 281 261 252 258 265 282 305 256 263 242 238 255 266 275 271 266 266 268 270 272 272 273 274 274 273 273 274 275 275 276 275 275 269 269 275 264 253 247 250 246 243 243
350 346 268 244 269 291 302 320 219 221 231 240 257 271 273 276 277 276 276 277 277 276 277 278 279 280 277 273 270 269 268 270 268 267 265 261 258 262 261 253 247 244 244
323 347 351 293 295 294 288 346 32 225 251 256 260 262 266 271 274 276 279 279 280 283 285 285 283 281 279 278 277 272 269 266 266 264 261 261 259 251 251 261 263 248 245
314 323 316 309 293 286 289 285 260 259 267 270 271 268 269 270 272 273 273 274 273 272 270 270 271 273 276 275 273 273 273 269 266 265 263 260 259 257 250 247 252 261 253
308 305 305 299 295 295 291 281 268 261 260 260 262 266 270 272 274 276 276 274 272 271 271 270 269 272 270 271 273 272 271 268 266 260 257 257 256 257 258 253 246 247 249
302 303 305 306 301 294 287 282 278 273 270 270 271 271 270 271 272 273 275 277 278 279 276 275 275 276 276 274 271 270 271 271 268 263 259 256 252 253 252 254 254 251 247
293 294 295 292 290 286 286 286 283 283 282 280 278 278 278 279 280 281 281 281 279 279 279 279 278 275 272 271 272 271 268 266 266 263 260 253 253 251 252 250 251 252 251
290 288 285 283 284 285 284 284 283 281 280 281 283 284 284 283 284 284 284 283 283 284 285 286 285 283 279 276 273 270 267 266 262 259 257 255 250 250 248 249 249 250 250
285 285 284 283 284 286 286 283 281 280 280 280 280 282 282 279 275 276 277 276 277 279 279 276 273 271 270 271 274 275 270 265 262 262 258 255 250 247 248 247 246 248 248
285 286 287 287 285 285 286 286 285 287 289 289 288 285 283 283 284 284 282 281 282 282 280 275 271 269 270 268 269 271 270 265 267 262 260 257 252 245 244 246 246 244 246
290 287 287 289 288 286 286 287 288 289 289 287 286 286 286 286 287 286 286 286 283 280 277 273 272 268 266 265 267 269 267 266 262 263 260 257 255 249 242 242 244 244 243
291 292 294 292 289 287 287 288 288 288 288 288 286 287 287 288 287 287 286 284 282 280 277 274 271 266 267 267 265 263 264 264 262 258 257 256 254 251 247 242 242 243 243
292 294 294 293 293 294 296 299 300 300 298 296 296 296 295 293 291 289 287 285 284 282 281 280 277 271 267 265 262 258 259 259 260 257 254 254 253 253 248 245 241 243 245
297 297 296 295 295 296 298 300 301 301 301 301 300 298 297 295 293 291 290 289 288 286 284 282 280 276 270 265 261 257 254 253 255 255 253 250 249 251 249 245 242 241 242
301 301 301 301 301 303 303 303 303 301 301 300 300 298 297 295 294 294 293 292 291 289 288 283 279 278 273 267 261 255 252 251 251 253 253 249 247 247 248 243 239 236 238
302 303 303 303 303 303 302 302 303 302 301 299 297 298 299 300 300 298 296 295 294 291 286 285 285 280 277 269 261 255 248 249 248 250 251 248 245 244 244 240 239 238 241
304 304 304 304 303 302 302 303 303 302 301 301 302 302 301 301 300 298 296 294 291 289 285 285 283 282 280 273 260 257 247 245 244 246 247 245 243 240 239 237 237 240 242
303 303 303 303 303 303 305 306 306 305 305 305 304 303 302 303 300 298 295 293 294 291 287 288 287 284 285 275 258 252 245 241 242 243 242 242 240 239 238 238 241 244 246
305 306 307 307 308 310 310 309 310 309 308 308 307 307 305 304 299 300 298 299 297 292 291 292 291 287 286 278 267 248 241 236 238 239 238 239 237 235 236 240 245 248 252
310 310 309 311 312 311 313 314 311 311 311 310 309 307 305 306 305 305 304 306 305 301 298 295 296 292 295 283 266 243 235 230 233 235 234 235 234 236 238 241 244 247 250
312 313 313 313 314 316 315 314 313 314 313 312 310 311 311 312 311 310 309 309 310 304 302 295 296 302 299 280 263 240 227 222 228 230 230 232 235 236 236 239 240 242 243
313 315 316 316 317 318 318 318 318 316 315 311 315 316 319 322 319 317 316 311 308 308 308 300 299 299 301 271 257 238 227 227 227 227 226 228 233 232 234 236 237 238 239
317 318 318 320 321 322 322 322 319 318 316 318 316 318 327 328 327 324 322 319 314 308 309 302 301 305 301 281 246 238 228 225 225 226 226 226 229 232 235 236 237 239 238
319 320 322 324 326 327 328 325 322 321 322 324 322 316 321 324 326 340 333 329 308 313 312 317 302 291 291 283 248 230 224 218 219 223 225 227 229 232 236 236 233 233 231